OPS 8314 (2)

Satellite information

Favourite Embed

Satellite Type and Status

PAYLOADIN ORBIT

Key statistics

Satellite OPS 8314 (2) at a glance.

Uptime

19382

Days in orbit

Revolutions

≈ 12.6

Per day

Orbit

SSO

Sun Synchronous Orbit

Inclination

95.6

Latest

Satellite identification and parameters

Extended collection of information and parameters for OPS 8314 (2).

Object identification

Identified? True

Debris? False

Object name: OPS 8314 (2)

International designator: 1972-079C

Object number (NORAD): 6822

Object ID (CCSDS): 6822

Country: UNITED STATES OF AMERICA (US)

Current information (Y/N): Y

RCS size: MEDIUM

Orbital parameters

Period: 114.684 minutes

Inclination: 95.64 deg

SMA: 7819.203 km

Apoapsis: 1463.328 km

Periapsis: 1418.807 km

RAAN: 277.6196 deg

Eccentricy: 0.0028469

Argument of periapsis: 272.4229 deg

Mean anomaly: 207.0446 deg

Mean motion: 12.55622353 rev/day

Mean motion (dot): 0.00000034 rev/day2

B* drag term: 0.00028263241 1/REarth

Two-line elements (TLE)

Creation date: Nov. 1, 2025, 7:40 p.m.

Reference frame: TEME

Reference center: EARTH

Epoch: Nov. 1, 2025, 12:16 p.m. UTC

TLE line 0: 0 OPS 8314 (2)

TLE line 1: 1 06822U 72079C 25305.51147780 .00000034 00000-0 28263-3 0 9992

TLE line 2: 2 06822 95.6400 277.6196 0028469 272.4229 207.0446 12.55622353431138

Live tracking on map

Real-time ground track for satellite OPS 8314 (2).

In-orbit conjunctions

There are no conjunctions computed for OPS 8314 (2), at the moment. Check back to stay up to date, as we update our databases every day.

Go to all conjunctions

Associated space launch

Large reconnaissance satellite equipped with four return capsules.

OPS 8314 (2) was lifted into orbit during the mission ‘Titan IIID | KH-9 4’, on board a Titan IIID space rocket.

The launch took place on Oct. 10, 1972, 6:03 p.m. from Space Launch Complex 4E.

For more information about the launch, click the button.

Launch to space Titan IIID | KH-9 4
Titan IIID | KH-9 4

Agency: N/A

Status: Launch Successful

Launch date: Oct. 10, 1972, 6:03 p.m. UTC

Rocket: Titan IIID

Launch pad: Space Launch Complex 4E

Location: Vandenberg SFB, CA, USA

...

Latest news about this satellite

There are no fresh news available about this satellite. Check back as we update our databases every day.


Newsletter sign-up

Weekly statistics, charts and insights to help you stay on top of the space industry.